KB1GNF Weather Reports


time (UTC)temp
F
wind
direction
speed
knots
gust
knots
rain 1hr
in
rain 24hr
in
rain mn
in
humidity
%
barometer
mb
20260506233503 59 204 3.5 7.8 0.01 0.25 0.24 92 1005.0
20260506233013 59 167 4.3 7.8 0.01 0.25 0.24 91 1005.0
20260506232506 59 200 3.5 7.0 0.01 0.25 0.24 91 1004.9
20260506232008 59 248 3.5 7.0 0.01 0.25 0.24 92 1004.9
20260506231516 59 204 3.5 7.0 0.01 0.25 0.24 92 1004.9
20260506231007 59 175 3.5 6.1 0.01 0.25 0.24 92 1004.8
20260506230507 59 148 2.6 6.1 0.01 0.25 0.24 92 1004.8
20260506230024 59 155 1.7 6.1 0.01 0.25 0.24 92 1004.8
20260506225510 59 190 2.6 7.0 0.01 0.25 0.24 92 1004.8
20260506225008 59 154 4.3 8.7 0.01 0.25 0.24 92 1004.9
20260506224516 59 146 5.2 8.7 0.01 0.25 0.24 92 1004.8
20260506224004 59 182 2.6 7.0 0.01 0.25 0.24 92 1004.8
20260506223506 59 159 3.5 7.8 0.00 0.24 0.23 92 1004.8
20260506223009 59 188 2.6 8.7 0.00 0.24 0.23 92 1004.8
20260506222505 60 178 3.5 8.7 0.00 0.24 0.23 91 1004.8
20260506222005 60 166 4.3 7.8 0.00 0.24 0.23 91 1004.8
20260506221512 60 172 3.5 7.8 0.00 0.24 0.23 91 1004.9
20260506221007 60 203 3.5 10.4 0.00 0.24 0.23 91 1004.9
20260506220508 60 129 3.5 12.2 0.00 0.24 0.23 90 1004.9
20260506220032 60 214 6.1 12.2 0.00 0.24 0.23 90 1005.0
20260506215508 60 163 3.5 9.6 0.00 0.24 0.23 90 1004.9
20260506215006 60 136 6.1 8.7 0.00 0.24 0.23 90 1004.9
20260506214524 60 233 4.3 9.6 0.00 0.24 0.23 91 1004.9
20260506214010 60 162 2.6 9.6 0.00 0.24 0.23 91 1004.9
20260506213511 60 120 4.3 9.6 0.00 0.24 0.23 91 1004.9
20260506213007 60 193 4.3 11.3 0.00 0.24 0.23 90 1004.9
20260506212505 60 207 7.8 11.3 0.00 0.24 0.23 90 1005.0
20260506212005 60 198 5.2 11.3 0.00 0.24 0.23 90 1005.0
20260506211518 60 199 2.6 11.3 0.00 0.24 0.23 90 1004.9
20260506211004 60 133 4.3 12.2 0.00 0.24 0.23 90 1005.0
20260506210506 60 119 6.1 13.9 0.00 0.24 0.23 90 1004.9
20260506210017 60 209 6.1 13.9 0.00 0.24 0.23 90 1004.8
20260506205507 60 239 7.0 11.3 0.00 0.24 0.23 90 1004.8
20260506205010 60 207 3.5 9.6 0.00 0.24 0.23 90 1004.9
20260506204522 60 185 4.3 13.0 0.00 0.24 0.23 90 1004.9
20260506204008 60 174 6.1 13.0 0.00 0.24 0.23 90 1005.0
20260506203515 60 236 5.2 12.2 0.00 0.24 0.23 91 1005.1
20260506203025 60 191 4.3 11.3 0.01 0.24 0.23 91 1005.1
20260506202509 60 219 4.3 10.4 0.01 0.24 0.23 91 1005.2
20260506202004 60 228 5.2 10.4 0.02 0.24 0.23 91 1005.2
20260506201506 60 184 7.0 10.4 0.02 0.24 0.23 91 1005.3
20260506201005 60 205 4.3 13.0 0.02 0.24 0.23 91 1005.2
20260506200504 60 203 6.1 13.0 0.03 0.24 0.23 91 1005.3
20260506200012 60 154 6.1 13.0 0.03 0.24 0.23 91 1005.4
20260506195502 60 215 6.1 12.2 0.04 0.24 0.23 91 1005.4
20260506195004 60 148 4.3 11.3 0.04 0.24 0.23 91 1005.6
20260506194504 60 222 7.0 14.8 0.04 0.24 0.23 91 1005.6
20260506194006 60 195 6.1 14.8 0.05 0.24 0.23 91 1005.6
20260506193502 60 237 6.1 14.8 0.06 0.24 0.23 91 1005.7
20260506193005 60 188 7.8 15.6 0.06 0.23 0.22 90 1005.7
20260506192504 60 229 8.7 15.6 0.07 0.23 0.22 90 1005.8
20260506192004 61 203 5.2 13.9 0.06 0.22 0.21 90 1005.8
20260506191506 61 218 7.8 13.9 0.06 0.22 0.21 90 1005.7
20260506191004 61 207 7.0 12.2 0.07 0.22 0.21 90 1005.7
20260506190505 61 176 5.2 10.4 0.06 0.21 0.20 90 1005.6
20260506190007 61 162 5.2 12.2 0.06 0.21 0.20 90 1005.7
20260506185504 61 193 7.0 12.2 0.06 0.20 0.19 90 1005.8
20260506185003 61 205 6.1 9.6 0.07 0.20 0.19 90 1005.8
20260506184516 61 150 5.2 7.8 0.08 0.20 0.19 91 1005.8
20260506184002 61 127 4.3 6.1 0.08 0.19 0.18 91 1005.8
20260506183504 62 194 3.5 5.2 0.08 0.18 0.17 91 1005.8
20260506183003 62 179 2.6 4.3 0.08 0.17 0.16 91 1005.9
20260506182503 62 175 1.7 3.5 0.08 0.16 0.15 91 1006.0
20260506182003 62 251 0.9 2.6 0.09 0.16 0.15 91 1006.0
20260506181508 62 145 0.0 0.0 0.10 0.16 0.15 91 1005.9
20260506181004 61 130 0.0 0.9 0.10 0.15 0.14 91 1005.9
20260506180504 61 153 0.0 0.9 0.11 0.15 0.14 91 1006.2
20260506180011 61 153 0.0 0.9 0.12 0.15 0.14 90 1006.4
20260506175505 61 202 0.9 0.9 0.12 0.14 0.13 90 1006.5
20260506175004 61 171 0.0 2.6 0.11 0.13 0.12 90 1006.6
20260506174511 61 172 0.0 2.6 0.10 0.12 0.11 90 1006.6
20260506174004 61 162 0.9 2.6 0.09 0.11 0.10 89 1006.7
20260506173507 62 207 0.9 2.6 0.09 0.10 0.09 89 1006.8
20260506173020 62 203 0.0 4.3 0.08 0.09 0.08 89 1006.8
20260506172507 62 161 1.7 4.3 0.07 0.08 0.07 88 1006.9
20260506172004 62 179 0.0 2.6 0.06 0.07 0.06 87 1006.9
20260506171507 62 210 1.7 5.2 0.05 0.06 0.05 86 1007.0
20260506171006 62 218 0.9 5.2 0.04 0.05 0.04 86 1007.1
20260506170502 62 183 1.7 5.2 0.03 0.04 0.03 84 1007.0
20260506170008 63 202 2.6 5.2 0.02 0.03 0.02 84 1007.2
20260506165503 63 242 1.7 6.1 0.01 0.02 0.01 83 1007.1
20260506165004 63 220 3.5 8.7 0.01 0.02 0.01 82 1007.0
20260506164513 63 195 3.5 8.7 0.01 0.02 0.01 82 1007.0
20260506164003 64 229 2.6 7.8 0.01 0.02 0.01 81 1007.1
20260506163506 64 156 2.6 7.8 0.00 0.01 0.00 80 1007.1
20260506163015 64 233 3.5 7.8 0.00 0.01 0.00 80 1007.1
20260506162506 64 221 2.6 7.0 0.00 0.01 0.00 80 1007.1
20260506162009 64 216 5.2 8.7 0.00 0.01 0.00 79 1007.1
20260506161518 64 198 3.5 12.2 0.00 0.01 0.00 78 1007.2
20260506160505 64 228 6.1 11.3 0.00 0.01 0.00 77 1007.3
20260506160004 64 203 5.2 10.4 0.00 0.01 0.00 78 1007.4
20260506155503 64 240 4.3 11.3 0.00 0.01 0.00 78 1007.5
20260506155004 64 200 3.5 12.2 0.00 0.01 0.00 78 1007.5
20260506154516 64 208 6.1 12.2 0.00 0.01 0.00 79 1007.8
20260506154006 64 208 6.1 11.3 0.00 0.01 0.00 78 1007.7
20260506153504 64 214 6.1 12.2 0.00 0.01 0.00 78 1007.9
20260506153011 64 202 4.3 12.2 0.00 0.01 0.00 79 1008.0
20260506152507 64 154 6.1 12.2 0.00 0.01 0.00 78 1008.1
20260506152012 64 183 6.1 14.8 0.00 0.01 0.00 78 1008.2
20260506151517 63 177 6.1 14.8 0.00 0.01 0.00 79 1008.2
20260506151008 64 212 6.1 14.8 0.00 0.01 0.00 78 1008.1
20260506150508 64 194 4.3 8.7 0.00 0.01 0.00 79 1008.2
20260506150021 63 219 3.5 11.3 0.00 0.01 0.00 79 1008.2
20260506145005 63 184 7.0 9.6 0.00 0.01 0.00 78 1008.3
20260506144505 63 214 4.3 11.3 0.00 0.01 0.00 79 1008.2
20260506144006 63 198 5.2 11.3 0.00 0.01 0.00 78 1008.3
20260506143503 63 195 5.2 11.3 0.00 0.01 0.00 79 1008.4
20260506143009 63 219 5.2 11.3 0.00 0.01 0.00 79 1008.3
20260506142504 63 230 3.5 11.3 0.00 0.01 0.00 79 1008.1
20260506142008 63 182 4.3 10.4 0.00 0.01 0.00 78 1007.9
20260506141516 63 205 6.1 10.4 0.00 0.01 0.00 78 1008.1
20260506141009 64 245 6.1 9.6 0.00 0.01 0.00 79 1008.3
20260506140018 63 195 3.5 9.6 0.00 0.01 0.00 79 1008.2
20260506134525 62 194 5.2 7.8 0.00 0.01 0.00 81 1008.1
20260506133509 62 248 2.6 8.7 0.00 0.01 0.00 81 1008.0
20260506133006 62 222 3.5 8.7 0.00 0.01 0.00 81 1007.9
20260506132003 61 187 5.2 7.8 0.00 0.01 0.00 81 1008.1
20260506131527 61 184 2.6 6.1 0.00 0.01 0.00 82 1008.1
20260506125011 60 207 4.3 8.7 0.00 0.01 0.00 83 1008.5
20260506124521 60 194 5.2 11.3 0.00 0.01 0.00 82 1008.5
20260506124010 60 250 3.5 13.0 0.00 0.01 0.00 83 1008.6
20260506123508 60 217 4.3 13.0 0.00 0.01 0.00 83 1008.6
20260506123024 60 191 7.0 13.0 0.00 0.01 0.00 83 1008.6
20260506122511 60 214 6.1 11.3 0.00 0.01 0.00 83 1008.6
20260506122010 60 203 7.8 12.2 0.00 0.01 0.00 83 1008.6
20260506121512 60 167 6.1 12.2 0.00 0.01 0.00 83 1008.7
20260506120018 60 219 6.1 11.3 0.00 0.01 0.00 83 1008.4
20260506114007 59 211 6.1 13.0 0.00 0.01 0.00 84 1008.4
20260506113024 59 187 4.3 10.4 0.00 0.01 0.00 83 1008.6
20260506112506 59 194 4.3 10.4 0.00 0.01 0.00 83 1008.6
20260506105505 59 202 6.1 12.2 0.00 0.01 0.00 83 1008.7
20260506104003 59 214 5.2 9.6 0.00 0.01 0.00 83 1008.7
20260506103503 58 207 6.1 11.3 0.00 0.01 0.00 83 1008.7
20260506103004 58 184 6.1 11.3 0.00 0.01 0.00 84 1008.7
20260506102503 58 214 5.2 8.7 0.00 0.01 0.00 84 1008.5
20260506102004 58 255 2.6 7.8 0.00 0.01 0.00 84 1008.6
20260506101516 58 193 4.3 7.8 0.00 0.01 0.00 84 1008.6
20260506101003 58 176 3.5 7.0 0.00 0.01 0.00 84 1008.5
20260506100506 58 181 3.5 6.1 0.00 0.01 0.00 84 1008.6
20260506100007 58 248 3.5 6.1 0.00 0.01 0.00 84 1008.6
20260506095508 58 259 3.5 7.0 0.00 0.01 0.00 84 1008.6
20260506095008 58 216 2.6 7.0 0.00 0.01 0.00 84 1008.4
20260506094519 58 172 3.5 7.0 0.00 0.01 0.00 83 1008.3
20260506094007 58 214 3.5 6.1 0.00 0.01 0.00 83 1008.4
20260506093507 58 228 3.5 6.1 0.00 0.01 0.00 83 1008.3
20260506092505 58 162 2.6 8.7 0.00 0.01 0.00 83 1008.6
20260506092003 58 225 2.6 8.7 0.00 0.01 0.00 83 1008.5
20260506091505 58 198 2.6 5.2 0.00 0.01 0.00 83 1008.6
20260506091003 58 278 2.6 4.3 0.00 0.01 0.00 83 1008.5
20260506090505 57 170 1.7 5.2 0.00 0.01 0.00 83 1008.5
20260506090005 57 224 1.7 5.2 0.00 0.01 0.00 84 1008.6
20260506085508 57 249 1.7 3.5 0.00 0.01 0.00 84 1008.6
20260506085002 57 238 0.9 4.3 0.00 0.01 0.00 83 1008.6
20260506084511 57 227 1.7 4.3 0.00 0.01 0.00 84 1008.6
20260506084007 57 238 1.7 3.5 0.00 0.01 0.00 84 1008.7
20260506083504 56 247 0.9 1.7 0.00 0.01 0.00 84 1008.8
20260506083015 57 220 0.0 3.5 0.00 0.01 0.00 83 1008.6
20260506082504 57 236 0.9 3.5 0.00 0.01 0.00 83 1008.6
20260506082010 56 205 1.7 2.6 0.00 0.01 0.00 83 1008.6
20260506081526 57 245 0.0 2.6 0.00 0.01 0.00 83 1008.7
20260506081004 57 248 0.9 2.6 0.00 0.01 0.00 83 1008.6
20260506080503 57 256 1.7 2.6 0.00 0.01 0.00 83 1008.7
20260506073504 56 218 0.0 0.9 0.00 0.01 0.00 83 1008.6
20260506073013 57 216 0.0 0.0 0.00 0.01 0.00 82 1008.7
20260506072504 57 216 0.0 0.9 0.00 0.01 0.00 81 1008.7
20260506072008 57 216 0.0 0.9 0.00 0.01 0.00 81 1008.7
20260506071520 58 216 0.0 0.9 0.00 0.01 0.00 80 1008.8
20260506071007 58 216 0.0 0.9 0.00 0.01 0.00 79 1008.7
20260506062505 61 166 1.7 3.5 0.00 0.01 0.00 74 1008.4
20260506062007 61 234 1.7 4.3 0.00 0.01 0.00 74 1008.5
20260506061520 61 274 1.7 4.3 0.00 0.01 0.00 74 1008.5
20260506061006 61 233 1.7 6.1 0.00 0.01 0.00 74 1008.5
20260506060507 61 227 2.6 6.1 0.00 0.01 0.00 73 1008.5
20260506051010 62 200 2.6 7.0 0.00 0.01 0.00 71 1008.8
20260506050506 62 219 2.6 6.1 0.00 0.01 0.00 71 1008.7
20260506045007 62 211 2.6 6.1 0.00 0.01 0.00 71 1008.8
20260506044006 63 212 4.3 7.8 0.00 0.01 0.00 70 1008.6
20260506043508 63 213 1.7 7.0 0.00 0.01 0.00 70 1008.8
20260506042004 63 146 4.3 11.3 0.00 0.01 0.00 69 1008.6
20260506041522 63 238 4.3 11.3 0.00 0.01 0.00 68 1008.8
20260506041002 63 186 2.6 11.3 0.00 0.01 0.00 69 1008.8
20260506040505 63 230 5.2 11.3 0.00 0.01 0.00 68 1008.8
20260506035512 64 227 3.5 10.4 0.00 0.01 0.01 68 1008.8
20260506035005 64 216 3.5 8.7 0.00 0.01 0.01 68 1008.8
20260506034522 64 199 4.3 9.6 0.00 0.01 0.01 67 1008.9
20260506034004 64 154 5.2 11.3 0.00 0.01 0.01 67 1009.0
20260506033508 64 181 6.1 11.3 0.00 0.01 0.01 67 1008.8
20260506033020 64 193 4.3 7.8 0.00 0.01 0.01 67 1008.9
20260506032507 64 195 3.5 7.8 0.00 0.01 0.01 67 1008.8
20260506032012 64 200 5.2 7.8 0.00 0.01 0.01 68 1008.7
20260506031525 64 209 2.6 6.1 0.00 0.01 0.01 68 1008.7
20260506031015 65 187 2.6 6.1 0.00 0.01 0.01 69 1008.9
20260506030511 65 195 3.5 6.1 0.00 0.01 0.01 68 1008.8
20260506030020 65 208 3.5 6.1 0.00 0.01 0.01 68 1008.8
20260506025505 65 259 2.6 6.1 0.00 0.01 0.01 68 1008.8
20260506025003 65 205 1.7 6.1 0.00 0.01 0.01 68 1008.8
20260506024533 65 252 2.6 6.1 0.00 0.01 0.01 68 1008.9
20260506024005 65 197 2.6 6.1 0.00 0.01 0.01 69 1008.8
20260506023508 65 169 2.6 6.1 0.00 0.01 0.01 68 1008.7
20260506023019 65 172 2.6 7.0 0.00 0.01 0.01 68 1008.6
20260506022508 65 199 3.5 7.0 0.00 0.01 0.01 68 1008.6
20260506022003 65 193 2.6 6.1 0.00 0.01 0.01 68 1008.8
20260506021003 65 200 1.7 9.6 0.00 0.01 0.01 69 1008.6
20260506020503 65 182 4.3 9.6 0.00 0.01 0.01 69 1008.7
20260506020010 65 226 4.3 8.7 0.00 0.01 0.01 70 1008.8
20260506015504 65 210 1.7 5.2 0.00 0.01 0.01 71 1008.7
20260506015004 65 203 3.5 5.2 0.00 0.01 0.01 71 1008.6
20260506014528 65 181 2.6 5.2 0.00 0.01 0.01 72 1008.6
20260506014003 65 199 2.6 5.2 0.00 0.01 0.01 73 1008.6
20260506013507 65 214 1.7 6.1 0.00 0.01 0.01 74 1008.5
20260506012502 65 219 0.9 6.1 0.00 0.01 0.01 75 1008.3
20260506011004 64 209 1.7 4.3 0.00 0.01 0.01 76 1008.2
20260506010503 64 177 2.6 4.3 0.00 0.01 0.01 77 1008.2
20260506010006 65 141 2.6 4.3 0.00 0.01 0.01 77 1008.1
20260506005504 65 240 0.0 2.6 0.00 0.01 0.01 77 1008.0
20260506005003 65 218 0.9 4.3 0.00 0.01 0.01 77 1008.0
20260506004512 65 219 1.7 4.3 0.00 0.01 0.01 77 1008.1
20260506004004 65 169 1.7 3.5 0.00 0.01 0.01 77 1008.1
20260506003509 66 158 1.7 3.5 0.01 0.01 0.01 76 1008.0
20260506003018 66 213 0.9 4.3 0.01 0.01 0.01 76 1007.9
20260506002506 66 232 1.7 5.2 0.01 0.01 0.01 75 1007.9
20260506002007 66 223 2.6 5.2 0.01 0.01 0.01 75 1007.9
20260506001532 66 217 1.7 4.3 0.01 0.01 0.01 76 1007.9
20260506001004 66 225 0.9 4.3 0.01 0.01 0.01 76 1007.9
20260506000502 67 246 2.6 7.0 0.01 0.01 0.01 74 1007.7
20260506000006 67 205 3.5 7.0 0.01 0.01 0.01 72 1007.5
20260505235504 68 224 2.6 7.0 0.01 0.01 0.01 71 1007.5
20260505235004 68 222 2.6 7.0 0.01 0.01 0.01 70 1007.4
20260505234509 69 214 2.6 6.1 0.01 0.01 0.01 70 1007.5
20260505234005 70 233 3.5 6.1 0.01 0.01 0.01 66 1007.3